When you browse on this site, cookies collect data to enhance your experience and personalize the content and advertising you see.
Visit our Privacy Policy to learn more. By continuing to use the site, you agree to this use of cookies and data.
  • In Sweden
  • List of Countries
  • For 7 days
  • Water Temperature
  • Weather Map
  • Weather Widgets
  • user-avatar
    Login

    Hourly Weather Cárdenas

    Today, 22 February, Saturday

    Time Temperature Precipitation Wind Pressure Humidity
    00:00 +23°C° 2.4 mm 4 mps 765 mmHg 93%
    01:00 +23°C° 1.3 mm 4 mps 764 mmHg 94%
    02:00 +23°C° 1.3 mm 4 mps 764 mmHg 94%
    03:00 +23°C° 1.3 mm 4 mps 763 mmHg 94%
    04:00 +23°C° 1.4 mm 4 mps 763 mmHg 94%
    05:00 +23°C° 1.4 mm 4 mps 763 mmHg 94%
    06:00 +24°C° 1.4 mm 3 mps 763 mmHg 94%
    07:00 +23°C° 1 mm 4 mps 764 mmHg 94%
    08:00 +23°C° 1 mm 4 mps 764 mmHg 93%
    09:00 +23°C° 1 mm 4 mps 765 mmHg 92%
    10:00 +23°C° 0.8 mm 4 mps 765 mmHg 92%
    11:00 +25°C° 0.8 mm 3 mps 765 mmHg 92%
    12:00 +25°C° 0.8 mm 3 mps 764 mmHg 91%
    13:00 +25°C° 1.2 mm 4 mps 764 mmHg 91%
    14:00 +25°C° 1.2 mm 4 mps 763 mmHg 90%
    15:00 +25°C° 1.2 mm 5 mps 762 mmHg 89%
    16:00 +25°C° 0.7 mm 5 mps 762 mmHg 90%
    17:00 +23°C° 0.7 mm 4 mps 762 mmHg 91%
    18:00 +23°C° 0.7 mm 4 mps 762 mmHg 92%
    19:00 +22°C° 0.1 mm 4 mps 763 mmHg 93%
    20:00 +22°C° 0.1 mm 3 mps 763 mmHg 94%
    21:00 +22°C° 0.1 mm 3 mps 764 mmHg 94%
    22:00 +22°C° 0 mm 3 mps 764 mmHg 94%
    23:00 +23°C° 0 mm 2 mps 763 mmHg 94%

    Tomorrow, 23 February, Sunday

    Time Temperature Precipitation Wind Pressure Humidity
    00:00 +23°C° 0 mm 2 mps 763 mmHg 94%
    01:00 +21°C° 0 mm 2 mps 763 mmHg 94%
    02:00 +21°C° 0 mm 2 mps 762 mmHg 94%
    03:00 +21°C° 0 mm 2 mps 761 mmHg 94%
    04:00 +21°C° 0 mm 2 mps 761 mmHg 93%
    05:00 +21°C° 0 mm 2 mps 761 mmHg 93%
    06:00 +22°C° 0 mm 1 mps 762 mmHg 93%
    07:00 +23°C° 0 mm 2 mps 762 mmHg 91%
    08:00 +22°C° 0 mm 3 mps 762 mmHg 88%
    09:00 +24°C° 0 mm 3 mps 763 mmHg 86%
    10:00 +25°C° 0 mm 3 mps 762 mmHg 82%
    11:00 +26°C° 0 mm 3 mps 762 mmHg 78%
    12:00 +27°C° 0 mm 3 mps 761 mmHg 74%
    13:00 +27°C° 0 mm 3 mps 760 mmHg 74%
    14:00 +27°C° 0 mm 2 mps 759 mmHg 74%
    15:00 +27°C° 0 mm 2 mps 758 mmHg 74%
    16:00 +26°C° 0 mm 2 mps 758 mmHg 78%
    17:00 +26°C° 0 mm 2 mps 758 mmHg 82%
    18:00 +25°C° 0 mm 2 mps 758 mmHg 86%
    19:00 +24°C° 0 mm 2 mps 758 mmHg 87%
    20:00 +22°C° 0 mm 3 mps 758 mmHg 89%
    21:00 +20°C° 0 mm 3 mps 759 mmHg 90%
    22:00 +20°C° 0 mm 2 mps 759 mmHg 91%
    23:00 +20°C° 0 mm 2 mps 758 mmHg 91%

    Day after tomorrow, 24 February, Monday

    Time Temperature Precipitation Wind Pressure Humidity
    00:00 +19°C° 0 mm 2 mps 758 mmHg 91%
    01:00 +19°C° 0 mm 2 mps 758 mmHg 91%
    02:00 +19°C° 0 mm 2 mps 757 mmHg 92%
    03:00 +19°C° 0 mm 2 mps 756 mmHg 92%
    04:00 +19°C° 0 mm 2 mps 756 mmHg 92%
    05:00 +19°C° 0 mm 2 mps 756 mmHg 92%
    06:00 +20°C° 0 mm 1 mps 756 mmHg 92%
    07:00 +21°C° 0 mm 1 mps 757 mmHg 90%
    08:00 +22°C° 0 mm 1 mps 757 mmHg 88%
    09:00 +23°C° 0 mm 1 mps 757 mmHg 86%
    10:00 +25°C° 0 mm 1 mps 756 mmHg 82%
    11:00 +27°C° 0 mm 1 mps 756 mmHg 79%
    12:00 +29°C° 0 mm 1 mps 755 mmHg 75%
    13:00 +29°C° 0 mm 1 mps 754 mmHg 74%
    14:00 +30°C° 0 mm 1 mps 753 mmHg 72%
    15:00 +31°C° 0 mm 2 mps 753 mmHg 71%
    16:00 +30°C° 0 mm 2 mps 753 mmHg 75%
    17:00 +29°C° 0 mm 2 mps 753 mmHg 79%
    18:00 +28°C° 0 mm 2 mps 752 mmHg 83%
    19:00 +27°C° 0 mm 2 mps 753 mmHg 84%
    20:00 +26°C° 0 mm 2 mps 753 mmHg 85%
    21:00 +25°C° 0 mm 2 mps 754 mmHg 86%
    22:00 +25°C° 0 mm 2 mps 754 mmHg 86%
    23:00 +25°C° 0 mm 1 mps 754 mmHg 86%

    25 February, Tuesday

    Time Temperature Precipitation Wind Pressure Humidity
    00:00 +24°C° 0 mm 1 mps 754 mmHg 85%
    01:00 +24°C° 0 mm 1 mps 754 mmHg 85%
    02:00 +23°C° 0 mm 1 mps 754 mmHg 85%
    03:00 +23°C° 0 mm 1 mps 753 mmHg 85%
    04:00 +23°C° 0 mm 1 mps 754 mmHg 86%
    05:00 +22°C° 0 mm 1 mps 754 mmHg 87%
    06:00 +22°C° 0 mm 1 mps 754 mmHg 89%
    07:00 +23°C° 0 mm 1 mps 754 mmHg 86%
    08:00 +25°C° 0 mm 1 mps 755 mmHg 83%
    09:00 +26°C° 0 mm 2 mps 756 mmHg 80%
    10:00 +28°C° 0 mm 2 mps 755 mmHg 77%
    11:00 +29°C° 0 mm 2 mps 755 mmHg 73%
    12:00 +31°C° 0 mm 2 mps 754 mmHg 70%
    13:00 +31°C° 0 mm 2 mps 754 mmHg 70%
    14:00 +31°C° 0 mm 3 mps 753 mmHg 71%
    15:00 +31°C° 0 mm 3 mps 753 mmHg 72%
    16:00 +30°C° 0.1 mm 3 mps 753 mmHg 77%
    17:00 +29°C° 0.1 mm 3 mps 753 mmHg 81%
    18:00 +27°C° 0.1 mm 3 mps 753 mmHg 86%
    19:00 +27°C° 0 mm 2 mps 753 mmHg 85%
    20:00 +26°C° 0 mm 2 mps 754 mmHg 84%
    21:00 +25°C° 0 mm 2 mps 755 mmHg 83%
    22:00 +25°C° 0 mm 2 mps 755 mmHg 84%
    23:00 +24°C° 0 mm 1 mps 755 mmHg 85%

    26 February, Wednesday

    Time Temperature Precipitation Wind Pressure Humidity
    00:00 +22°C° 0 mm 0 mps 755 mmHg 86%
    01:00 +24°C° 0 mm 1 mps 755 mmHg 86%
    02:00 +23°C° 0 mm 1 mps 755 mmHg 87%
    03:00 +23°C° 0 mm 1 mps 755 mmHg 88%
    04:00 +23°C° 0 mm 1 mps 755 mmHg 89%
    05:00 +23°C° 0 mm 1 mps 756 mmHg 90%
    06:00 +22°C° 0 mm 1 mps 756 mmHg 91%
    07:00 +24°C° 0 mm 1 mps 757 mmHg 88%
    08:00 +25°C° 0 mm 1 mps 758 mmHg 85%
    09:00 +27°C° 0 mm 2 mps 758 mmHg 82%
    10:00 +28°C° 0.1 mm 2 mps 758 mmHg 79%
    11:00 +29°C° 0.1 mm 3 mps 758 mmHg 77%
    12:00 +30°C° 0.1 mm 3 mps 758 mmHg 75%
    13:00 +29°C° 0.7 mm 5 mps 758 mmHg 79%
    14:00 +28°C° 0.7 mm 6 mps 758 mmHg 83%
    15:00 +26°C° 0.7 mm 8 mps 758 mmHg 87%
    16:00 +24°C° 1.5 mm 8 mps 759 mmHg 89%
    17:00 +23°C° 1.5 mm 9 mps 759 mmHg 91%
    18:00 +22°C° 1.5 mm 9 mps 760 mmHg 93%
    19:00 +21°C° 1.3 mm 8 mps 761 mmHg 93%
    20:00 +21°C° 1.3 mm 8 mps 763 mmHg 93%
    21:00 +21°C° 1.3 mm 7 mps 764 mmHg 92%
    22:00 +20°C° 1.1 mm 7 mps 764 mmHg 92%
    23:00 +20°C° 1.1 mm 7 mps 765 mmHg 91%

    27 February, Thursday

    Time Temperature Precipitation Wind Pressure Humidity
    00:00 +18°C° 1.1 mm 7 mps 766 mmHg 91%
    01:00 +19°C° 0.6 mm 6 mps 766 mmHg 91%
    02:00 +17°C° 0.6 mm 5 mps 766 mmHg 91%
    03:00 +17°C° 0.6 mm 5 mps 766 mmHg 91%
    04:00 +18°C° 0.3 mm 4 mps 766 mmHg 90%
    05:00 +18°C° 0.3 mm 3 mps 766 mmHg 89%
    06:00 +18°C° 0.3 mm 3 mps 767 mmHg 88%
    07:00 +18°C° 0.3 mm 3 mps 767 mmHg 89%
    08:00 +18°C° 0.3 mm 2 mps 768 mmHg 89%
    09:00 +19°C° 0.3 mm 2 mps 768 mmHg 89%
    10:00 +19°C° 0.2 mm 2 mps 768 mmHg 88%
    11:00 +19°C° 0.2 mm 2 mps 768 mmHg 86%
    12:00 +20°C° 0.2 mm 2 mps 767 mmHg 85%
    13:00 +20°C° 0.2 mm 2 mps 767 mmHg 84%
    14:00 +20°C° 0.2 mm 3 mps 766 mmHg 83%
    15:00 +21°C° 0.2 mm 3 mps 765 mmHg 81%
    16:00 +20°C° 0.2 mm 3 mps 765 mmHg 84%
    17:00 +20°C° 0.2 mm 3 mps 765 mmHg 86%
    18:00 +19°C° 0.2 mm 3 mps 765 mmHg 88%
    19:00 +19°C° 0.1 mm 3 mps 766 mmHg 89%
    20:00 +19°C° 0.1 mm 2 mps 766 mmHg 89%
    21:00 +18°C° 0.1 mm 2 mps 766 mmHg 90%
    22:00 +18°C° 0 mm 2 mps 766 mmHg 90%
    23:00 +18°C° 0 mm 2 mps 766 mmHg 90%
    Show more